,,PressureMeas_1m,,PRMeasQMR101_1,,RHStat155_1m_1,,SRMeasQMS101R_1m,,TAStat155_1m_1,,GenWind_1,,GenWind_1,
2018-06-16, 07:00:06,VALID,917.845,VALID,0.0,VALID,96.583,VALID,62.02,VALID,20.465,VALID,318.0,VALID,0.0,
2018-06-16, 07:01:06,VALID,917.865,VALID,0.0,VALID,96.105,VALID,63.712,VALID,20.51,VALID,263.0,VALID,0.0,
2018-06-16, 07:02:06,VALID,917.87,VALID,0.0,VALID,95.853,VALID,71.19,VALID,20.564,VALID,263.0,VALID,0.0,
2018-06-16, 07:03:06,VALID,917.866,VALID,0.0,VALID,95.55,VALID,104.532,VALID,20.599,VALID,263.0,VALID,0.0,
2018-06-16, 07:04:06,VALID,917.876,VALID,0.0,VALID,95.248,VALID,152.775,VALID,20.627,VALID,263.0,VALID,0.0,
2018-06-16, 07:05:06,VALID,917.878,VALID,0.0,VALID,94.877,VALID,166.283,VALID,20.635,VALID,263.0,VALID,0.0,
2018-06-16, 07:06:06,VALID,917.901,VALID,0.0,VALID,94.569,VALID,171.125,VALID,20.645,VALID,231.0,VALID,0.0,
2018-06-16, 07:07:06,VALID,917.911,VALID,0.0,VALID,94.63,VALID,172.263,VALID,20.647,VALID,227.0,VALID,0.0,
2018-06-16, 07:08:06,VALID,917.901,VALID,0.0,VALID,94.762,VALID,162.369,VALID,20.644,VALID,226.0,VALID,0.0,
2018-06-16, 07:09:06,VALID,917.899,VALID,0.0,VALID,94.543,VALID,129.288,VALID,20.612,VALID,226.0,VALID,0.0,
2018-06-16, 07:10:06,VALID,917.891,VALID,0.0,VALID,94.669,VALID,97.61,VALID,20.623,VALID,248.0,VALID,0.0,
2018-06-16, 07:11:06,VALID,917.883,VALID,0.0,VALID,94.511,VALID,78.218,VALID,20.639,VALID,278.0,VALID,0.0,
2018-06-16, 07:12:06,VALID,917.888,VALID,0.0,VALID,94.83,VALID,84.848,VALID,20.741,VALID,298.0,VALID,0.0,
2018-06-16, 07:13:06,VALID,917.893,VALID,0.0,VALID,94.784,VALID,87.503,VALID,20.836,VALID,333.0,VALID,0.0,
2018-06-16, 07:14:06,VALID,917.9,VALID,0.0,VALID,94.795,VALID,89.842,VALID,20.926,VALID,329.0,VALID,0.0,
2018-06-16, 07:15:06,VALID,917.905,VALID,0.0,VALID,94.639,VALID,91.073,VALID,20.998,VALID,337.0,VALID,0.0,
2018-06-16, 07:16:06,VALID,917.912,VALID,0.0,VALID,94.23,VALID,93.644,VALID,21.051,VALID,330.0,VALID,0.0,
2018-06-16, 07:17:06,VALID,917.924,VALID,0.0,VALID,93.532,VALID,98.184,VALID,21.087,VALID,320.0,VALID,0.0,
2018-06-16, 07:18:06,VALID,917.925,VALID,0.0,VALID,93.033,VALID,100.978,VALID,21.12,VALID,330.0,VALID,0.0,
2018-06-16, 07:19:06,VALID,917.949,VALID,0.0,VALID,93.174,VALID,106.115,VALID,21.144,VALID,300.0,VALID,0.0,
2018-06-16, 07:20:06,VALID,917.981,VALID,0.0,VALID,93.126,VALID,111.107,VALID,21.17,VALID,288.0,VALID,0.0,
2018-06-16, 07:21:06,VALID,918.024,VALID,0.0,VALID,92.503,VALID,117.153,VALID,21.167,VALID,253.0,VALID,0.0,
2018-06-16, 07:22:06,VALID,918.074,VALID,0.0,VALID,92.466,VALID,124.037,VALID,21.099,VALID,231.0,VALID,0.0,
2018-06-16, 07:23:06,VALID,918.109,VALID,0.0,VALID,92.854,VALID,132.757,VALID,20.973,VALID,230.0,VALID,0.0,
2018-06-16, 07:24:06,VALID,918.131,VALID,0.0,VALID,93.547,VALID,141.96,VALID,20.903,VALID,255.0,VALID,0.0,
2018-06-16, 07:25:06,VALID,918.148,VALID,0.0,VALID,94.205,VALID,148.424,VALID,20.912,VALID,280.0,VALID,0.0,
2018-06-16, 07:26:06,VALID,918.175,VALID,0.0,VALID,94.043,VALID,155.161,VALID,20.952,VALID,285.0,VALID,0.0,
2018-06-16, 07:27:06,VALID,918.171,VALID,0.0,VALID,93.865,VALID,159.842,VALID,21.018,VALID,294.0,VALID,0.0,
2018-06-16, 07:28:06,VALID,918.19,VALID,0.0,VALID,93.632,VALID,165.264,VALID,21.083,VALID,316.0,VALID,0.0,
2018-06-16, 07:29:06,VALID,918.197,VALID,0.0,VALID,93.318,VALID,170.237,VALID,21.164,VALID,328.0,VALID,0.0,
2018-06-16, 07:30:06,VALID,918.211,VALID,0.0,VALID,93.152,VALID,175.722,VALID,21.234,VALID,295.0,VALID,0.0,
2018-06-16, 07:31:06,VALID,918.217,VALID,0.0,VALID,92.588,VALID,182.099,VALID,21.236,VALID,279.0,VALID,0.0,
2018-06-16, 07:32:06,VALID,918.229,VALID,0.0,VALID,92.993,VALID,190.099,VALID,21.274,VALID,276.0,VALID,0.0,
2018-06-16, 07:33:06,VALID,918.232,VALID,0.0,VALID,92.378,VALID,195.907,VALID,21.267,VALID,283.0,VALID,0.0,
2018-06-16, 07:34:06,VALID,918.24,VALID,0.0,VALID,92.25,VALID,206.721,VALID,21.201,VALID,280.0,VALID,0.0,
2018-06-16, 07:35:06,VALID,918.24,VALID,0.0,VALID,92.332,VALID,209.274,VALID,21.15,VALID,274.0,VALID,0.0,
2018-06-16, 07:36:06,VALID,918.258,VALID,0.0,VALID,92.442,VALID,207.102,VALID,21.091,VALID,289.0,VALID,0.0,
2018-06-16, 07:37:06,VALID,918.263,VALID,0.0,VALID,92.932,VALID,212.21,VALID,21.105,VALID,307.0,VALID,0.0,
2018-06-16, 07:38:06,VALID,918.277,VALID,0.0,VALID,93.074,VALID,214.134,VALID,21.217,VALID,323.0,VALID,0.0,
2018-06-16, 07:39:06,VALID,918.278,VALID,0.0,VALID,92.712,VALID,209.686,VALID,21.293,VALID,295.0,VALID,0.0,
2018-06-16, 07:40:06,VALID,918.277,VALID,0.0,VALID,91.915,VALID,205.217,VALID,21.228,VALID,288.0,VALID,0.0,
2018-06-16, 07:41:06,VALID,918.296,VALID,0.0,VALID,92.213,VALID,201.605,VALID,21.163,VALID,271.0,VALID,0.0,
2018-06-16, 07:42:06,VALID,918.302,VALID,0.0,VALID,92.114,VALID,197.115,VALID,21.128,VALID,291.0,VALID,0.0,
2018-06-16, 07:43:06,VALID,918.344,VALID,0.0,VALID,92.533,VALID,192.427,VALID,21.182,VALID,286.0,VALID,0.0,
2018-06-16, 07:44:06,VALID,918.352,VALID,0.0,VALID,92.574,VALID,190.472,VALID,21.251,VALID,279.0,VALID,0.0,
2018-06-16, 07:45:06,VALID,918.351,VALID,0.0,VALID,92.049,VALID,186.818,VALID,21.306,VALID,274.0,VALID,0.0,
2018-06-16, 07:46:06,VALID,918.364,VALID,0.0,VALID,92.109,VALID,177.6,VALID,21.401,VALID,272.0,VALID,0.0,
2018-06-16, 07:47:06,VALID,918.378,VALID,0.0,VALID,91.392,VALID,172.815,VALID,21.45,VALID,279.0,VALID,0.0,
2018-06-16, 07:48:06,VALID,918.393,VALID,0.0,VALID,91.752,VALID,169.72,VALID,21.46,VALID,291.0,VALID,0.0,
2018-06-16, 07:49:06,VALID,918.419,VALID,0.0,VALID,91.648,VALID,169.22,VALID,21.483,VALID,292.0,VALID,0.0,
2018-06-16, 07:50:06,VALID,918.449,VALID,0.0,VALID,91.831,VALID,172.436,VALID,21.528,VALID,292.0,VALID,0.0,
2018-06-16, 07:51:06,VALID,918.453,VALID,0.0,VALID,91.764,VALID,176.279,VALID,21.592,VALID,337.0,VALID,0.0,
2018-06-16, 07:52:06,VALID,918.473,VALID,0.0,VALID,91.153,VALID,181.229,VALID,21.662,VALID,252.0,VALID,0.0,
2018-06-16, 07:53:06,VALID,918.491,VALID,0.0,VALID,90.475,VALID,191.583,VALID,21.731,VALID,262.0,VALID,0.0,
2018-06-16, 07:54:06,VALID,918.487,VALID,0.0,VALID,90.13,VALID,191.965,VALID,21.753,VALID,278.0,VALID,0.0,
2018-06-16, 07:55:06,VALID,918.498,VALID,0.0,VALID,89.645,VALID,196.902,VALID,21.782,VALID,267.0,VALID,0.0,
2018-06-16, 07:56:06,VALID,918.498,VALID,0.0,VALID,89.789,VALID,202.57,VALID,21.822,VALID,324.0,VALID,0.0,
2018-06-16, 07:57:06,VALID,918.512,VALID,0.0,VALID,89.734,VALID,207.586,VALID,21.856,VALID,314.0,VALID,0.0,
2018-06-16, 07:58:06,VALID,918.507,VALID,0.0,VALID,90.08,VALID,208.461,VALID,21.969,VALID,314.0,VALID,0.0,
2018-06-16, 07:59:07,VALID,918.517,VALID,0.0,VALID,89.271,VALID,207.824,VALID,22.067,VALID,312.0,VALID,0.0,
2018-06-16, 08:00:07,VALID,918.523,VALID,0.0,VALID,88.777,VALID,211.768,VALID,22.144,VALID,274.0,VALID,0.0,
2018-06-16, 08:01:07,VALID,918.538,VALID,0.0,VALID,88.553,VALID,228.965,VALID,22.208,VALID,260.0,VALID,0.0,
2018-06-16, 08:02:07,VALID,918.537,VALID,0.0,VALID,88.355,VALID,244.107,VALID,22.224,VALID,267.0,VALID,0.0,
2018-06-16, 08:03:07,VALID,918.549,VALID,0.0,VALID,87.883,VALID,239.419,VALID,22.241,VALID,266.0,VALID,0.0,
2018-06-16, 08:04:07,VALID,918.572,VALID,0.0,VALID,88.345,VALID,226.311,VALID,22.254,VALID,292.0,VALID,0.0,
2018-06-16, 08:05:07,VALID,918.584,VALID,0.0,VALID,88.131,VALID,232.851,VALID,22.312,VALID,266.0,VALID,0.0,
2018-06-16, 08:06:07,VALID,918.591,VALID,0.0,VALID,87.963,VALID,235.612,VALID,22.328,VALID,247.0,VALID,0.0,
2018-06-16, 08:07:07,VALID,918.582,VALID,0.0,VALID,88.272,VALID,229.198,VALID,22.21,VALID,241.0,VALID,0.0,
2018-06-16, 08:08:07,VALID,918.581,VALID,0.0,VALID,89.316,VALID,226.992,VALID,22.14,VALID,241.0,VALID,0.0,
2018-06-16, 08:09:07,VALID,918.586,VALID,0.0,VALID,89.48,VALID,223.663,VALID,22.165,VALID,241.0,VALID,0.0,
2018-06-16, 08:10:07,VALID,918.574,VALID,0.0,VALID,89.204,VALID,216.315,VALID,22.147,VALID,238.0,VALID,0.0,
2018-06-16, 08:11:07,VALID,918.576,VALID,0.0,VALID,89.458,VALID,213.349,VALID,22.24,VALID,285.0,VALID,0.0,
2018-06-16, 08:12:07,VALID,918.558,VALID,0.0,VALID,88.84,VALID,201.564,VALID,22.291,VALID,231.0,VALID,0.0,
2018-06-16, 08:13:07,VALID,918.55,VALID,0.0,VALID,88.85,VALID,194.32,VALID,22.327,VALID,278.0,VALID,0.0,
2018-06-16, 08:14:07,VALID,918.53,VALID,0.0,VALID,89.336,VALID,180.392,VALID,22.457,VALID,330.0,VALID,0.0,
2018-06-16, 08:15:07,VALID,918.539,VALID,0.0,VALID,89.059,VALID,177.521,VALID,22.528,VALID,10.0,VALID,0.0,
2018-06-16, 08:16:07,VALID,918.552,VALID,0.0,VALID,88.077,VALID,179.753,VALID,22.593,VALID,235.0,VALID,0.0,
2018-06-16, 08:17:07,VALID,918.567,VALID,0.0,VALID,87.184,VALID,194.292,VALID,22.521,VALID,254.0,VALID,0.0,
2018-06-16, 08:18:07,VALID,918.576,VALID,0.0,VALID,88.789,VALID,185.5,VALID,22.449,VALID,359.0,VALID,0.0,
2018-06-16, 08:19:07,VALID,918.587,VALID,0.0,VALID,88.865,VALID,183.093,VALID,22.508,VALID,9.0,VALID,0.0,
2018-06-16, 08:20:07,VALID,918.61,VALID,0.0,VALID,88.18,VALID,180.359,VALID,22.589,VALID,4.0,VALID,0.0,
2018-06-16, 08:21:07,VALID,918.623,VALID,0.0,VALID,88.057,VALID,181.859,VALID,22.706,VALID,2.0,VALID,0.0,
2018-06-16, 08:22:07,VALID,918.628,VALID,0.0,VALID,86.986,VALID,189.446,VALID,22.721,VALID,358.0,VALID,0.0,
2018-06-16, 08:23:07,VALID,918.644,VALID,0.0,VALID,87.445,VALID,186.464,VALID,22.764,VALID,1.0,VALID,0.0,
2018-06-16, 08:24:07,VALID,918.645,VALID,0.0,VALID,87.579,VALID,183.735,VALID,22.791,VALID,23.0,VALID,0.0,
2018-06-16, 08:25:07,VALID,918.649,VALID,0.0,VALID,87.533,VALID,183.237,VALID,22.838,VALID,3.0,VALID,0.0,
2018-06-16, 08:26:07,VALID,918.662,VALID,0.0,VALID,86.478,VALID,183.907,VALID,22.798,VALID,278.0,VALID,0.0,
2018-06-16, 08:27:07,VALID,918.678,VALID,0.0,VALID,86.087,VALID,256.353,VALID,22.601,VALID,270.0,VALID,0.0,
2018-06-16, 08:28:07,VALID,918.695,VALID,0.0,VALID,87.171,VALID,235.011,VALID,22.597,VALID,267.0,VALID,0.0,
2018-06-16, 08:29:07,VALID,918.7,VALID,0.0,VALID,86.959,VALID,221.093,VALID,22.712,VALID,150.0,VALID,0.0,
2018-06-16, 08:30:07,VALID,918.71,VALID,0.0,VALID,86.489,VALID,237.301,VALID,22.861,VALID,63.0,VALID,0.0,
2018-06-16, 08:31:07,VALID,918.721,VALID,0.0,VALID,85.594,VALID,273.786,VALID,23.038,VALID,100.0,VALID,0.0,
2018-06-16, 08:32:07,VALID,918.705,VALID,0.0,VALID,85.258,VALID,330.899,VALID,23.173,VALID,188.0,VALID,0.0,
2018-06-16, 08:33:07,VALID,918.701,VALID,0.0,VALID,84.167,VALID,269.163,VALID,23.251,VALID,282.0,VALID,0.0,
2018-06-16, 08:34:07,VALID,918.704,VALID,0.0,VALID,83.42,VALID,367.239,VALID,23.263,VALID,254.0,VALID,0.0,
2018-06-16, 08:35:07,VALID,918.685,VALID,0.0,VALID,83.554,VALID,480.812,VALID,23.229,VALID,284.0,VALID,0.0,
2018-06-16, 08:36:07,VALID,918.678,VALID,0.0,VALID,83.748,VALID,510.787,VALID,23.351,VALID,341.0,VALID,0.0,
2018-06-16, 08:37:07,VALID,918.685,VALID,0.0,VALID,82.146,VALID,507.902,VALID,23.379,VALID,288.0,VALID,0.0,
2018-06-16, 08:38:07,VALID,918.665,VALID,0.0,VALID,83.6,VALID,504.58,VALID,23.488,VALID,25.0,VALID,0.0,
2018-06-16, 08:39:07,VALID,918.65,VALID,0.0,VALID,82.256,VALID,508.948,VALID,23.79,VALID,296.0,VALID,0.0,
2018-06-16, 08:40:07,VALID,918.627,VALID,0.0,VALID,80.639,VALID,510.173,VALID,23.855,VALID,249.0,VALID,0.0,
2018-06-16, 08:41:07,VALID,918.596,VALID,0.0,VALID,80.165,VALID,519.642,VALID,23.686,VALID,274.0,VALID,0.0,
2018-06-16, 08:42:07,VALID,918.576,VALID,0.0,VALID,80.43,VALID,436.226,VALID,23.456,VALID,274.0,VALID,0.0,
2018-06-16, 08:43:07,VALID,918.553,VALID,0.0,VALID,81.935,VALID,268.136,VALID,23.329,VALID,264.0,VALID,0.0,
2018-06-16, 08:44:07,VALID,918.552,VALID,0.0,VALID,81.592,VALID,284.982,VALID,23.278,VALID,254.0,VALID,0.0,
2018-06-16, 08:45:07,VALID,918.54,VALID,0.0,VALID,83.29,VALID,530.661,VALID,23.232,VALID,4.0,VALID,0.0,
2018-06-16, 08:46:07,VALID,918.539,VALID,0.0,VALID,82.956,VALID,580.028,VALID,23.35,VALID,343.0,VALID,0.0,
2018-06-16, 08:47:07,VALID,918.544,VALID,0.0,VALID,82.857,VALID,352.804,VALID,23.667,VALID,27.0,VALID,0.0,
2018-06-16, 08:48:07,VALID,918.553,VALID,0.0,VALID,80.303,VALID,365.67,VALID,24.094,VALID,322.0,VALID,0.0,
2018-06-16, 08:49:07,VALID,918.57,VALID,0.0,VALID,77.208,VALID,521.168,VALID,24.252,VALID,291.0,VALID,0.0,
2018-06-16, 08:50:07,VALID,918.586,VALID,0.0,VALID,77.389,VALID,560.272,VALID,24.458,VALID,297.0,VALID,0.0,
2018-06-16, 08:51:07,VALID,918.612,VALID,0.0,VALID,77.116,VALID,532.637,VALID,24.669,VALID,297.0,VALID,0.0,
2018-06-16, 08:52:07,VALID,918.63,VALID,0.0,VALID,76.618,VALID,401.374,VALID,24.668,VALID,312.0,VALID,0.0,
2018-06-16, 08:53:07,VALID,918.653,VALID,0.0,VALID,76.786,VALID,482.845,VALID,24.658,VALID,301.0,VALID,0.0,
2018-06-16, 08:54:07,VALID,918.66,VALID,0.0,VALID,76.753,VALID,514.467,VALID,24.309,VALID,263.0,VALID,0.0,
2018-06-16, 08:55:07,VALID,918.659,VALID,0.0,VALID,78.717,VALID,573.49,VALID,24.028,VALID,275.0,VALID,0.0,
2018-06-16, 08:56:07,VALID,918.662,VALID,0.0,VALID,77.875,VALID,578.306,VALID,23.862,VALID,270.0,VALID,0.0,
2018-06-16, 08:57:07,VALID,918.638,VALID,0.0,VALID,79.748,VALID,585.96,VALID,23.626,VALID,301.0,VALID,0.0,
2018-06-16, 08:58:07,VALID,918.63,VALID,0.0,VALID,80.265,VALID,587.071,VALID,23.819,VALID,338.0,VALID,0.0,
2018-06-16, 08:59:07,VALID,918.624,VALID,0.0,VALID,79.956,VALID,607.652,VALID,24.207,VALID,333.0,VALID,0.0,
2018-06-16, 09:00:07,VALID,918.639,VALID,0.0,VALID,78.289,VALID,372.76,VALID,24.352,VALID,276.0,VALID,0.0,
2018-06-16, 09:01:07,VALID,918.659,VALID,0.0,VALID,78.186,VALID,243.288,VALID,24.356,VALID,255.0,VALID,0.0,
2018-06-16, 09:02:07,VALID,918.674,VALID,0.0,VALID,77.497,VALID,520.828,VALID,24.377,VALID,334.0,VALID,0.0,
2018-06-16, 09:03:07,VALID,918.682,VALID,0.0,VALID,75.91,VALID,380.599,VALID,24.447,VALID,232.0,VALID,0.0,
2018-06-16, 09:04:07,VALID,918.714,VALID,0.0,VALID,76.105,VALID,468.41,VALID,24.417,VALID,246.0,VALID,0.0,
2018-06-16, 09:05:07,VALID,918.716,VALID,0.0,VALID,76.724,VALID,305.335,VALID,24.425,VALID,311.0,VALID,0.0,
2018-06-16, 09:06:07,VALID,918.722,VALID,0.0,VALID,76.172,VALID,420.285,VALID,24.39,VALID,286.0,VALID,0.0,
2018-06-16, 09:07:07,VALID,918.731,VALID,0.0,VALID,76.379,VALID,546.496,VALID,24.169,VALID,290.0,VALID,0.0,
2018-06-16, 09:08:07,VALID,918.736,VALID,0.0,VALID,77.547,VALID,505.828,VALID,24.227,VALID,295.0,VALID,0.0,
2018-06-16, 09:09:07,VALID,918.735,VALID,0.0,VALID,76.955,VALID,458.612,VALID,24.355,VALID,303.0,VALID,0.0,
2018-06-16, 09:10:07,VALID,918.723,VALID,0.0,VALID,76.761,VALID,465.764,VALID,24.441,VALID,331.0,VALID,0.0,
2018-06-16, 09:11:07,VALID,918.713,VALID,0.0,VALID,77.992,VALID,581.388,VALID,24.75,VALID,13.0,VALID,0.0,
2018-06-16, 09:12:07,VALID,918.694,VALID,0.0,VALID,74.87,VALID,685.372,VALID,24.995,VALID,13.0,VALID,0.0,
2018-06-16, 09:13:07,VALID,918.693,VALID,0.0,VALID,75.68,VALID,690.733,VALID,24.91,VALID,13.0,VALID,0.0,
2018-06-16, 09:14:07,VALID,918.695,VALID,0.0,VALID,75.559,VALID,692.817,VALID,25.004,VALID,304.0,VALID,0.0,
2018-06-16, 09:15:07,VALID,918.7,VALID,0.0,VALID,74.786,VALID,699.312,VALID,24.912,VALID,350.0,VALID,0.0,
2018-06-16, 09:16:07,VALID,918.705,VALID,0.0,VALID,76.472,VALID,691.475,VALID,24.926,VALID,338.0,VALID,0.0,
2018-06-16, 09:17:07,VALID,918.718,VALID,0.0,VALID,77.283,VALID,667.484,VALID,25.049,VALID,355.0,VALID,0.0,
2018-06-16, 09:18:07,VALID,918.726,VALID,0.0,VALID,76.636,VALID,641.857,VALID,25.074,VALID,358.0,VALID,0.0,
2018-06-16, 09:19:07,VALID,918.734,VALID,0.0,VALID,76.658,VALID,644.692,VALID,25.048,VALID,77.0,VALID,0.0,
2018-06-16, 09:20:07,VALID,918.722,VALID,0.0,VALID,74.146,VALID,577.165,VALID,25.118,VALID,241.0,VALID,0.0,
2018-06-16, 09:21:07,VALID,918.732,VALID,0.0,VALID,74.039,VALID,544.907,VALID,25.121,VALID,293.0,VALID,0.0,
2018-06-16, 09:22:07,VALID,918.74,VALID,0.0,VALID,74.848,VALID,529.269,VALID,25.212,VALID,7.0,VALID,0.0,
2018-06-16, 09:23:07,VALID,918.741,VALID,0.0,VALID,73.741,VALID,562.863,VALID,25.377,INVALID,360.0,VALID,0.0,
2018-06-16, 09:24:07,VALID,918.732,VALID,0.0,VALID,73.337,VALID,665.483,VALID,25.483,INVALID,360.0,VALID,0.0,
2018-06-16, 09:25:07,VALID,918.732,VALID,0.0,VALID,75.189,VALID,676.015,VALID,25.599,VALID,20.0,VALID,0.0,
2018-06-16, 09:26:07,VALID,918.712,VALID,0.0,VALID,74.241,VALID,682.986,VALID,25.645,VALID,11.0,VALID,0.0,
2018-06-16, 09:27:07,VALID,918.718,VALID,0.0,VALID,73.077,VALID,689.518,VALID,25.556,INVALID,360.0,VALID,0.0,
2018-06-16, 09:28:07,VALID,918.695,VALID,0.0,VALID,72.7,VALID,693.823,VALID,25.53,VALID,351.0,VALID,0.0,
2018-06-16, 09:29:07,VALID,918.706,VALID,0.0,VALID,71.951,VALID,690.07,VALID,25.744,VALID,3.0,VALID,0.0,
2018-06-16, 09:30:07,VALID,918.713,VALID,0.0,VALID,68.306,VALID,674.709,VALID,25.953,VALID,115.0,VALID,0.0,
2018-06-16, 09:31:07,VALID,918.721,VALID,0.0,VALID,67.736,VALID,674.219,VALID,25.923,VALID,333.0,VALID,0.0,
2018-06-16, 09:32:07,VALID,918.717,VALID,0.0,VALID,67.13,VALID,679.878,VALID,25.828,VALID,14.0,VALID,0.0,
2018-06-16, 09:33:07,VALID,918.701,VALID,0.0,VALID,66.954,VALID,684.547,VALID,25.81,VALID,347.0,VALID,0.0,
2018-06-16, 09:34:07,VALID,918.705,VALID,0.0,VALID,68.384,VALID,692.782,VALID,25.925,VALID,1.0,VALID,0.0,
2018-06-16, 09:35:07,VALID,918.705,VALID,0.0,VALID,68.154,VALID,698.524,VALID,26.069,VALID,346.0,VALID,0.0,
2018-06-16, 09:36:07,VALID,918.71,VALID,0.0,VALID,66.98,VALID,710.184,VALID,26.189,VALID,340.0,VALID,0.0,
2018-06-16, 09:37:07,VALID,918.72,VALID,0.0,VALID,68.063,VALID,718.873,VALID,26.257,VALID,355.0,VALID,0.0,
2018-06-16, 09:38:07,VALID,918.731,VALID,0.0,VALID,67.827,VALID,731.423,VALID,26.124,VALID,274.0,VALID,0.0,
2018-06-16, 09:39:07,VALID,918.73,VALID,0.0,VALID,67.982,VALID,736.818,VALID,25.807,VALID,9.0,VALID,0.0,
2018-06-16, 09:40:07,VALID,918.727,VALID,0.0,VALID,70.46,VALID,737.868,VALID,25.894,VALID,333.0,VALID,0.0,
2018-06-16, 09:41:07,VALID,918.706,VALID,0.0,VALID,68.473,VALID,736.583,VALID,25.786,VALID,325.0,VALID,0.0,
2018-06-16, 09:42:07,VALID,918.71,VALID,0.0,VALID,70.175,VALID,737.865,VALID,25.432,VALID,355.0,VALID,0.0,
2018-06-16, 09:43:07,VALID,918.717,VALID,0.0,VALID,71.729,VALID,727.183,VALID,25.505,VALID,309.0,VALID,0.0,
2018-06-16, 09:44:07,VALID,918.706,VALID,0.0,VALID,68.93,VALID,734.643,VALID,25.629,VALID,341.0,VALID,0.0,
2018-06-16, 09:45:07,VALID,918.695,VALID,0.0,VALID,69.198,VALID,728.529,VALID,25.444,VALID,360.0,VALID,0.0,
2018-06-16, 09:46:07,VALID,918.677,VALID,0.0,VALID,71.335,VALID,749.657,VALID,25.344,VALID,344.0,VALID,0.0,
2018-06-16, 09:47:07,VALID,918.676,VALID,0.0,VALID,71.755,VALID,455.803,VALID,25.194,VALID,9.0,VALID,0.0,
2018-06-16, 09:48:07,VALID,918.675,VALID,0.0,VALID,73.074,VALID,537.115,VALID,25.013,VALID,354.0,VALID,0.0,
2018-06-16, 09:49:07,VALID,918.662,VALID,0.0,VALID,73.744,VALID,528.694,VALID,24.987,VALID,15.0,VALID,0.0,
2018-06-16, 09:50:07,VALID,918.671,VALID,0.0,VALID,75.001,VALID,373.676,VALID,25.05,VALID,331.0,VALID,0.0,
2018-06-16, 09:51:07,VALID,918.67,VALID,0.0,VALID,72.128,VALID,371.179,VALID,25.029,VALID,250.0,VALID,0.0,
2018-06-16, 09:52:07,VALID,918.678,VALID,0.0,VALID,72.572,VALID,744.272,VALID,24.987,VALID,19.0,VALID,0.0,
2018-06-16, 09:53:07,VALID,918.687,VALID,0.0,VALID,70.615,VALID,744.585,VALID,25.313,VALID,63.0,VALID,0.0,
2018-06-16, 09:54:07,VALID,918.71,VALID,0.0,VALID,70.639,VALID,750.557,VALID,25.779,VALID,4.0,VALID,0.0,
2018-06-16, 09:55:07,VALID,918.714,VALID,0.0,VALID,70.052,VALID,786.786,VALID,26.118,VALID,359.0,VALID,0.0,
2018-06-16, 09:56:07,VALID,918.72,VALID,0.0,VALID,68.57,VALID,791.435,VALID,26.36,INVALID,360.0,VALID,0.0,
2018-06-16, 09:57:07,VALID,918.729,VALID,0.0,VALID,67.042,VALID,802.805,VALID,26.429,VALID,303.0,VALID,0.0,
2018-06-16, 09:58:07,VALID,918.732,VALID,0.0,VALID,69.227,VALID,796.971,VALID,26.552,VALID,357.0,VALID,0.0,
2018-06-16, 09:59:07,VALID,918.745,VALID,0.0,VALID,67.803,VALID,797.962,VALID,26.533,INVALID,360.0,VALID,0.0,
2018-06-16, 10:00:07,VALID,918.728,VALID,0.0,VALID,68.778,VALID,792.674,VALID,26.22,VALID,310.0,VALID,0.0,
2018-06-16, 10:01:07,VALID,918.734,VALID,0.0,VALID,68.821,VALID,778.636,VALID,26.282,VALID,37.0,VALID,0.0,
2018-06-16, 10:02:07,VALID,918.748,VALID,0.0,VALID,67.329,VALID,799.765,VALID,26.494,VALID,32.0,VALID,0.0,
2018-06-16, 10:03:07,VALID,918.764,VALID,0.0,VALID,66.612,VALID,750.586,VALID,26.41,VALID,148.0,VALID,0.0,
2018-06-16, 10:04:07,VALID,918.773,VALID,0.0,VALID,66.749,VALID,707.809,VALID,26.295,VALID,302.0,VALID,0.0,
2018-06-16, 10:05:07,VALID,918.769,VALID,0.0,VALID,68.674,VALID,602.761,VALID,26.259,VALID,3.0,VALID,0.0,
2018-06-16, 10:06:06,VALID,918.779,VALID,0.0,VALID,68.99,VALID,454.501,VALID,26.086,VALID,6.0,VALID,0.0,
2018-06-16, 10:07:06,VALID,918.781,VALID,0.0,VALID,70.655,VALID,714.824,VALID,26.084,VALID,19.0,VALID,0.0,
2018-06-16, 10:08:06,VALID,918.788,VALID,0.0,VALID,70.049,VALID,578.495,VALID,26.198,VALID,354.0,VALID,0.0,
2018-06-16, 10:09:06,VALID,918.794,VALID,0.0,VALID,70.183,VALID,675.333,VALID,26.334,VALID,3.0,VALID,0.0,
2018-06-16, 10:10:06,VALID,918.816,VALID,0.0,VALID,69.809,VALID,710.68,VALID,26.326,VALID,341.0,VALID,0.0,
2018-06-16, 10:11:06,VALID,918.828,VALID,0.0,VALID,69.98,VALID,736.806,VALID,26.356,VALID,342.0,VALID,0.0,
2018-06-16, 10:12:06,VALID,918.845,VALID,0.0,VALID,67.827,VALID,763.944,VALID,26.117,VALID,284.0,VALID,0.0,
2018-06-16, 10:13:06,VALID,918.852,VALID,0.0,VALID,69.144,VALID,775.621,VALID,25.84,VALID,21.0,VALID,0.0,
2018-06-16, 10:14:06,VALID,918.855,VALID,0.0,VALID,69.544,VALID,784.698,VALID,25.981,VALID,334.0,VALID,0.0,
2018-06-16, 10:15:06,VALID,918.861,VALID,0.0,VALID,69.984,VALID,849.315,VALID,26.016,VALID,339.0,VALID,0.0,
2018-06-16, 10:16:06,VALID,918.856,VALID,0.0,VALID,70.249,VALID,854.562,VALID,25.934,VALID,13.0,VALID,0.0,
2018-06-16, 10:17:06,VALID,918.874,VALID,0.0,VALID,71.056,VALID,433.323,VALID,26.144,VALID,30.0,VALID,0.0,
2018-06-16, 10:18:06,VALID,918.887,VALID,0.0,VALID,69.272,VALID,616.856,VALID,26.429,VALID,346.0,VALID,0.0,
2018-06-16, 10:19:06,VALID,918.895,VALID,0.0,VALID,67.881,VALID,752.664,VALID,26.407,INVALID,360.0,VALID,0.0,
2018-06-16, 10:20:06,VALID,918.902,VALID,0.0,VALID,69.228,VALID,335.438,VALID,26.126,VALID,336.0,VALID,0.0,
2018-06-16, 10:21:06,VALID,918.904,VALID,0.0,VALID,70.054,VALID,292.759,VALID,26.176,VALID,332.0,VALID,0.0,
2018-06-16, 10:22:06,VALID,918.902,VALID,0.0,VALID,71.059,VALID,403.298,VALID,26.249,VALID,3.0,VALID,0.0,
2018-06-16, 10:23:06,VALID,918.914,VALID,0.0,VALID,69.431,VALID,252.829,VALID,26.264,INVALID,360.0,VALID,0.0,
2018-06-16, 10:24:06,VALID,918.932,VALID,0.0,VALID,70.016,VALID,232.274,VALID,26.266,INVALID,360.0,VALID,0.0,
2018-06-16, 10:25:06,VALID,918.931,VALID,0.0,VALID,70.893,VALID,221.017,VALID,26.221,VALID,9.0,VALID,0.0,
2018-06-16, 10:26:06,VALID,918.923,VALID,0.0,VALID,70.119,VALID,224.097,VALID,26.057,INVALID,360.0,VALID,0.0,
2018-06-16, 10:27:06,VALID,918.929,VALID,0.0,VALID,71.098,VALID,212.84,VALID,25.961,VALID,294.0,VALID,0.0,
2018-06-16, 10:28:06,VALID,918.92,VALID,0.0,VALID,71.295,VALID,187.965,VALID,25.785,VALID,326.0,VALID,0.0,
2018-06-16, 10:29:06,VALID,918.919,VALID,0.0,VALID,72.787,VALID,177.317,VALID,25.643,VALID,10.0,VALID,0.0,
2018-06-16, 10:30:06,VALID,918.914,VALID,0.0,VALID,72.705,VALID,183.664,VALID,25.529,INVALID,360.0,VALID,0.0,
2018-06-16, 10:31:06,VALID,918.91,VALID,0.0,VALID,72.891,VALID,200.222,VALID,25.248,INVALID,360.0,VALID,0.0,
2018-06-16, 10:32:06,VALID,918.906,VALID,0.0,VALID,73.876,VALID,214.808,VALID,24.97,INVALID,360.0,VALID,0.0,
2018-06-16, 10:33:06,VALID,918.905,VALID,0.0,VALID,75.875,VALID,196.301,VALID,24.879,VALID,290.0,VALID,0.0,
2018-06-16, 10:34:06,VALID,918.893,VALID,0.0,VALID,75.528,VALID,174.33,VALID,25.014,VALID,208.0,VALID,0.0,
2018-06-16, 10:35:06,VALID,918.89,VALID,0.0,VALID,75.869,VALID,175.121,VALID,25.148,VALID,114.0,VALID,0.0,
2018-06-16, 10:36:06,VALID,918.885,VALID,0.0,VALID,76.411,VALID,203.313,VALID,25.283,INVALID,360.0,VALID,0.0,
2018-06-16, 10:37:06,VALID,918.871,VALID,0.0,VALID,75.934,VALID,634.089,VALID,25.217,INVALID,360.0,VALID,0.0,
2018-06-16, 10:38:06,VALID,918.868,VALID,0.0,VALID,75.714,VALID,386.156,VALID,25.333,VALID,291.0,VALID,0.0,
2018-06-16, 10:39:06,VALID,918.841,VALID,0.0,VALID,74.521,VALID,239.646,VALID,25.347,INVALID,360.0,VALID,0.0,